This is the latest recevied weather packets stored in our database for station/object KE4EST. If no packets are shown the sender has not sent any weather packets the latest 10 day(s).
| Time | Temp. | Humidity | Pressure | Rain* | Wind** | Luminosity | Snow |
|---|---|---|---|---|---|---|---|
| 1777913029 | 21.11° C | 47% | 1016.9 hPa | 0 mm | - | 246 W/m² | - |
| 1777912724 | 21.11° C | 46% | 1017.1 hPa | 0 mm | - | 255 W/m² | - |
| 1777912420 | 20.56° C | 47% | 1017.2 hPa | 0 mm | - | 150 W/m² | - |
| 1777912117 | 20.56° C | 46% | 1017.1 hPa | 0 mm | - | 218 W/m² | - |
| 1777911813 | 20.56° C | 45% | 1017.5 hPa | 0 mm | - | 159 W/m² | - |
| 1777911510 | 20° C | 46% | 1017.5 hPa | 0 mm | - | 110 W/m² | - |
| 1777911207 | 19.44° C | 48% | 1017.6 hPa | 0 mm | - | 358 W/m² | - |
| 1777910904 | 19.44° C | 47% | 1017.6 hPa | 0 mm | - | 490 W/m² | - |
| 1777910601 | 19.44° C | 49% | 1017.7 hPa | 0 mm | - | 618 W/m² | - |
| 1777910298 | 19.44° C | 48% | 1017.7 hPa | 0 mm | - | 346 W/m² | - |
| 1777909994 | 18.89° C | 48% | 1018 hPa | 0 mm | - | 70 W/m² | - |
| 1777909692 | 19.44° C | 48% | 1018 hPa | 0 mm | - | 72 W/m² | - |
| 1777909389 | 18.89° C | 50% | 1018.1 hPa | 0 mm | - | 274 W/m² | - |
| 1777909087 | 18.33° C | 50% | 1018.2 hPa | 0 mm | - | 183 W/m² | - |
| 1777908784 | 17.78° C | 54% | 1018.3 hPa | 0 mm | - | 97 W/m² | - |
| 1777908481 | 17.78° C | 53% | 1018.4 hPa | 0 mm | - | 156 W/m² | - |
| 1777908177 | 17.78° C | 55% | 1018.3 hPa | 0 mm | - | 83 W/m² | - |
| 1777907874 | 17.22° C | 49% | 1018.2 hPa | 0 mm | - | 78 W/m² | - |
| 1777907569 | 17.22° C | 52% | 1018.5 hPa | 0 mm | - | 81 W/m² | - |
| 1777907265 | 16.67° C | 53% | 1018.5 hPa | 0 mm | - | 78 W/m² | - |
| 1777906962 | 16.67° C | 52% | 1018.3 hPa | 0 mm | - | 64 W/m² | - |
| 1777906660 | 16.67° C | 54% | 1018.6 hPa | 0 mm | - | 167 W/m² | - |
| 1777906356 | 16.11° C | 57% | 1018.6 hPa | 0 mm | - | 68 W/m² | - |
| 1777906052 | 16.11° C | 57% | 1018.7 hPa | 0 mm | - | 58 W/m² | - |
| 1777905749 | 16.11° C | 61% | 1018.7 hPa | 0 mm | - | 57 W/m² | - |
* Rain latest hour (hover to see other rain measurements)
** Current wind speed in m/s (hover to see current wind gust speed)